Погода в Бурже

Франция     47°05′04″N   2°23′22″E
В апреле 2022 года жителям России запретили посещать сайт meteo.paraplan.net по решению Генеральной прокуратуры. Аудитория сайта уменьшилась в 10 раз. Владельцы сайта не видят смысла в поддержке погодного сервера в таких условиях. Сайт будет закрыт в октябре.
темп.,
°C
ветер,
м/с
пор.,
м/с
влажн.,
%
обл.,
%
осадки,
мм/ч
давл.,
гПа
погр.,
м
3 октября, пн
пн323:00+15сз228880 0.2 102538
02:00+15ссв1189100 0.3 102517
05:00+14в129399 0.0 102558
08:00+13всв3594100 0.0 1025186
11:00+15всв3476100 0.0 1026347
14:00+19св445597 0.0 1024878
17:00+20св44485 0.0 1023946
20:00+14св36715 0.0 102393
4 октября, вт
вт423:00+12всв36807 0.0 102392
02:00+11вюв33915 0.0 102246
05:00+10вюв33915 0.0 102143
08:00+9вюв23925 0.0 102133
11:00+15юв226749 0.0 1022330
14:00+21юз124866 0.0 1021797
17:00+21зюз224220 0.0 1020910
20:00+16ю1162100 0.0 102011
5 октября, ср
ср523:00+15ю227371 0.0 102116
02:00+13ю348170 0.0 102148
05:00+12ю228696 0.0 102023
08:00+12ю338495 0.0 102041
11:00+19ююз47580 0.0 1020404
14:00+24зюз68390 0.0 10201145
17:00+24зюз58395 0.0 10201374
20:00+18зюз35570 0.0 102254
6 октября, чт
чт623:00+15зсз39691 0.0 1026186
02:00+13с259398 0.0 1029116
05:00+14с137994 0.0 1030235
08:00+12ссв248478 0.0 1031120
11:00+15св457037 0.0 1032592
14:00+18св4452100 0.0 10311063
17:00+18св4549100 0.0 1029993
20:00+14св37636 0.0 1029113
7 октября, пт
пт723:00+12св38690 0.0 1029157
02:00+11всв35740 0.0 102780
05:00+10всв34783 0.0 102659
08:00+10в34815 0.0 102569
11:00+15в236957 0.0 1025373
14:00+20сз015740 0.0 1023729
17:00+21сз225313 0.0 1022967
20:00+16с337134 0.0 102224